[[{"header":{"parameterUnit":"m.s-1","parameterCategory":1,"la1":30.2991,"la2":30.254,"lo1":-89.0895,"lo2":-89.0444,"dy":0.0017,"dx":0.0017,"nx":28,"ny":28,"refTime":"2024-04-07T21:00:00:Z","depth":0,"parameterNumber":2,"parameterNumberName":"U-component_of_WINDS"},"data":[0,0,0,0,0,0,0,0,0,0,0,0,0,0,0,0,0,0,0,0,0,0,0,0,0,0,0,0,0,0,0,0,0,0,0,0,0,0,0,0,0,0,0,0,0,0,0,0,0,0,0,0,0,0,0,0,0,0,-5.5493,-5.5495,0,-5.5614,-5.5615,-5.5616,-5.5641,-5.564,-5.5639,-5.5638,-5.5758,-5.5762,-5.5766,0,0,0,0,0,0,0,0,0,0,0,0,0,-5.5281,-5.5285,-5.5493,-5.5495,-5.5496,-5.5613,-5.5615,-5.5617,-5.5641,-5.564,-5.5639,-5.5638,-5.5756,-5.5761,-5.5766,0,0,0,0,0,0,0,0,0,0,0,0,0,-5.5384,-5.5286,-5.5493,-5.5522,-5.5526,-5.5613,-5.5615,-5.5617,-5.5641,-5.564,-5.5638,-5.5637,-5.5755,-5.5761,-5.5767,-5.5831,0,0,-5.5785,-5.5788,0,0,0,0,0,0,0,0,-5.5378,-5.5392,-5.5517,-5.5521,-5.5525,-5.5611,-5.5584,-5.5689,-5.5641,-5.5597,-5.5638,-5.5636,-5.571,-5.5719,-5.5745,-5.5837,-5.5842,-5.5786,-5.5789,-5.5792,-5.5794,0,0,0,0,0,0,0,-5.5371,-5.5387,-5.5541,-5.5518,-5.5524,-5.5529,-5.5542,-5.5604,-5.566,-5.5601,-5.5603,-5.5617,-5.5712,-5.5739,-5.5748,-5.5844,-5.5785,-5.5791,-5.5795,-5.5797,-5.5994,-5.5995,0,0,0,0,0,0,-5.5359,-5.5381,-5.5537,-5.5544,-5.5447,-5.5533,-5.5548,-5.5585,-5.5659,-5.5669,-5.5618,-5.5618,-5.5729,-5.5741,-5.5752,-5.5831,-5.5792,-5.5798,-5.5801,-5.5992,-5.5994,-5.5996,0,0,0,0,0,0,-5.5355,-5.5373,-5.5532,-5.5463,-5.5484,-5.5539,-5.5579,-5.5588,-5.5615,-5.5672,-5.5682,-5.5636,-5.5729,-5.5744,-5.5811,-5.5836,-5.58,-5.5806,-5.599,-5.5993,-5.5995,-5.5991,0,0,0,0,0,0,-5.5348,-5.5371,-5.5397,-5.5464,-5.5488,-5.559,-5.5581,-5.5591,-5.5626,-5.5626,-5.5691,-5.5701,-5.5729,-5.5802,-5.5817,-5.5844,-5.5811,-5.5988,-5.5992,-5.5994,-5.5989,-5.5993,-5.5996,0,0,0,0,0,-5.5341,-5.5391,-5.5398,-5.5417,-5.5521,-5.5592,-5.5605,-5.5637,-5.5628,-5.5653,-5.569,-5.5699,-5.5831,-5.5809,-5.5826,-5.5855,-5.5987,-5.5991,-5.5994,-5.5988,-5.5992,-5.5996,0,0,0,0,0,0,-5.5324,-5.54,-5.5409,-5.5482,-5.5531,-5.5596,-5.5629,-5.5642,-5.5692,-5.5691,-5.5728,-5.5742,-5.5807,-5.5838,-5.5812,-5.5921,-5.5908,-5.5916,-5.5898,-5.5903,-5.5906,-5.5896,-5.5816,0,0,0,0,0,-5.5329,-5.5381,-5.5445,-5.5503,-5.5527,-5.5574,-5.5606,-5.5627,-5.5677,-5.5698,-5.5739,-5.5787,-5.584,-5.5873,-5.5925,-5.5995,-5.6008,-5.6023,-5.6026,-5.6029,-5.6034,-5.6072,-5.6078,-5.6008,-5.6008,-5.6008,0,0,-5.534,-5.5388,-5.5418,-5.5501,-5.5541,-5.5592,-5.5591,-5.5646,-5.5684,-5.5706,-5.5772,-5.5804,-5.586,-5.5929,-5.5961,-5.5957,-5.6057,-5.6034,-5.6035,-5.6039,-5.6076,-5.6083,-5.6088,-5.601,-5.601,-5.6009,0,0,-5.5385,-5.5428,-5.548,-5.552,-5.5581,-5.5612,-5.5625,-5.5689,-5.5711,-5.5779,-5.5796,-5.5841,-5.5931,-5.597,-5.6002,-5.6062,-5.6071,-5.6078,-5.6095,-5.6132,-5.6137,-5.6142,-5.6162,-5.6168,-5.6083,-5.6083,-5.6083,0,-5.539,-5.547,-5.5505,-5.556,-5.5595,-5.5618,-5.5671,-5.5708,-5.5782,-5.5805,-5.5799,-5.5912,-5.5952,-5.6029,-5.6044,-5.6069,-5.6083,-5.6069,-5.6134,-5.6139,-5.6144,-5.6163,-5.6171,-5.6083,-5.6083,-5.6083,-5.6083,0,-5.5472,-5.5527,-5.5562,-5.5633,-5.5673,-5.5726,-5.5768,-5.5804,-5.5822,-5.5853,-5.5921,-5.5969,-5.603,-5.6051,-5.6068,-5.6131,-5.6126,-5.6127,-5.6114,-5.6151,-5.6169,-5.6177,-5.6084,-5.6084,-5.6084,-5.6084,0,0,-5.5508,-5.5599,-5.5611,-5.5643,-5.5713,-5.5755,-5.5809,-5.587,-5.5899,-5.5949,-5.5994,-5.607,-5.6071,-5.6107,-5.6129,-5.6161,-5.6204,-5.6158,-5.616,-5.6163,-5.6273,-5.627,-5.6278,-5.6211,-5.6213,-5.6214,-5.6268,0,-5.5559,-5.5657,-5.5691,-5.5771,-5.5821,-5.5845,-5.5892,-5.5938,-5.5969,-5.6015,-5.6049,-5.6102,-5.6101,-5.6122,-5.6155,-5.6191,-5.6226,-5.6189,-5.6251,-5.6253,-5.6234,-5.6288,-5.6285,-5.6333,-5.6275,-5.6276,-5.6277,0,-5.5632,-5.5684,-5.577,-5.5832,-5.5854,-5.5895,-5.5953,-5.5998,-5.6051,-5.6071,-5.6112,-5.6132,-5.6188,-5.6174,-5.6251,-5.6225,-5.6253,-5.6274,-5.6277,-5.6282,-5.6265,-5.6292,-5.6349,-5.6356,-5.6289,-5.6288,-5.6288,0,-5.5647,-5.5739,-5.5801,-5.5829,-5.5903,-5.5931,-5.5964,-5.6016,-5.605,-5.6101,-5.6123,-5.6179,-5.621,-5.6252,-5.6287,-5.6274,-5.6359,-5.6349,-5.6376,-5.6375,-5.639,-5.6388,-5.6451,-5.6413,-5.6412,-5.6412,-5.6412,0,-5.57,-5.575,-5.5809,-5.5847,-5.5904,-5.5943,-5.5998,-5.6031,-5.6077,-5.6121,-5.6146,-5.6186,-5.6231,-5.6277,-5.6304,-5.6362,-5.6376,-5.6393,-5.6399,-5.6389,-5.6387,-5.6406,-5.6403,-5.6414,-5.6414,-5.6413,-5.6413,0,-5.5725,-5.5767,-5.5836,-5.5901,-5.5919,-5.5958,-5.6013,-5.605,-5.6083,-5.6138,-5.6154,-5.6204,-5.626,-5.6299,-5.637,-5.6389,-5.6451,-5.6458,-5.6433,-5.6435,-5.6459,-5.6455,-5.6534,-5.6545,-5.6501,-5.6501,-5.6502,0,-5.5754,-5.5794,-5.5864,-5.5895,-5.5928,-5.5979,-5.6014,-5.6054,-5.6089,-5.6153,-5.6182,-5.624,-5.6287,-5.6375,-5.6417,-5.6472,-5.6479,-5.6503,-5.6487,-5.6475,-5.6476,-5.6473,-5.6476,-5.6504,-5.6504,-5.6504,-5.6505,0,-5.5801,-5.582,-5.5871,-5.5928,-5.597,-5.6017,-5.6064,-5.6089,-5.6136,-5.6175,-5.6233,-5.627,-5.6343,-5.6399,-5.6458,-5.649,-5.6504,-5.651,-5.6518,-5.6507,-5.649,-5.6498,-5.6436,-5.6507,-5.6507,-5.6507,-5.6506,-5.6506,-5.5828,-5.5864,-5.5919,-5.5974,-5.6014,-5.6057,-5.6095,-5.6133,-5.6182,-5.6245,-5.6266,-5.6325,-5.6377,-5.6457,-5.649,-5.6536,-5.6535,-5.6548,-5.6551,-5.6553,-5.6551,-5.6485,-5.6547,-5.6547,-5.6547,-5.6547,-5.6547,0,-5.5875,-5.5911,-5.5962,-5.6027,-5.6071,-5.6083,-5.6136,-5.617,-5.6223,-5.627,-5.6317,-5.6383,-5.6437,-5.6485,-5.6541,-5.6569,-5.6577,-5.6582,-5.6579,-5.6586,-5.655,-5.6536,-5.6574,-5.6574,-5.6574,-5.6574,-5.6574,-5.6574,-5.5904,-5.5964,-5.599,-5.607,-5.6106,-5.6165,-5.6194,-5.6234,-5.6272,-5.6344,-5.639,-5.6421,-5.6469,-5.6529,-5.6579,-5.6591,-5.661,-5.6613,-5.6627,-5.6592,-5.6589,-5.6585,-5.6572,-5.6617,-5.6617,-5.6658,-5.6659,-5.6659]},{"header":{"parameterUnit":"m.s-1","parameterCategory":1,"la1":30.2991,"la2":30.254,"lo1":-89.0895,"lo2":-89.0444,"dy":0.0017,"dx":0.0017,"nx":28,"ny":28,"refTime":"2024-04-07T21:00:00:Z","depth":0,"parameterNumber":3,"parameterNumberName":"V-component_of_WINDS"},"data":[0,0,0,0,0,0,0,0,0,0,0,0,0,0,0,0,0,0,0,0,0,0,0,0,0,0,0,0,0,0,0,0,0,0,0,0,0,0,0,0,0,0,0,0,0,0,0,0,0,0,0,0,0,0,0,0,0,0,5.5269,5.5269,0,5.5286,5.5286,5.5287,5.5268,5.5267,5.5266,5.5266,5.5283,5.5284,5.5285,0,0,0,0,0,0,0,0,0,0,0,0,0,5.5221,5.5222,5.5269,5.5269,5.5269,5.5286,5.5286,5.5287,5.5268,5.5267,5.5266,5.5265,5.5283,5.5284,5.5285,0,0,0,0,0,0,0,0,0,0,0,0,0,5.5241,5.5222,5.5269,5.5262,5.5262,5.5286,5.5286,5.5287,5.5268,5.5267,5.5266,5.5265,5.5282,5.5284,5.5286,5.5318,0,0,5.5291,5.5292,0,0,0,0,0,0,0,0,5.5239,5.5242,5.5263,5.5262,5.5262,5.5274,5.5276,5.5297,5.5268,5.5266,5.5266,5.5264,5.5281,5.5283,5.5288,5.5318,5.5319,5.5291,5.5292,5.5293,5.5293,0,0,0,0,0,0,0,5.5238,5.5241,5.5276,5.5263,5.5263,5.5259,5.526,5.528,5.5279,5.5266,5.5264,5.5267,5.528,5.5287,5.5288,5.5319,5.5291,5.5292,5.5293,5.5294,5.5379,5.538,0,0,0,0,0,0,5.5237,5.524,5.5275,5.5276,5.5248,5.526,5.5262,5.5271,5.5279,5.5279,5.5268,5.5266,5.5284,5.5286,5.5289,5.5328,5.5293,5.5294,5.5295,5.5378,5.5379,5.5381,0,0,0,0,0,0,5.5236,5.5241,5.5274,5.5258,5.5262,5.5262,5.5273,5.5272,5.5278,5.528,5.528,5.5274,5.5283,5.5287,5.5311,5.5328,5.5295,5.5297,5.5376,5.5378,5.538,5.5406,0,0,0,0,0,0,5.5235,5.524,5.5252,5.5258,5.5263,5.5296,5.5274,5.5273,5.5281,5.5279,5.5286,5.5286,5.5283,5.5309,5.5313,5.533,5.5298,5.5375,5.5377,5.5379,5.5403,5.5408,5.5412,0,0,0,0,0,5.5234,5.5258,5.5253,5.5257,5.5277,5.5297,5.5299,5.5295,5.5282,5.5295,5.5296,5.5286,5.5326,5.5311,5.5316,5.5334,5.5374,5.5376,5.5379,5.5401,5.5407,5.5412,0,0,0,0,0,0,5.5253,5.5259,5.5253,5.528,5.5288,5.5294,5.5308,5.5301,5.5313,5.531,5.5304,5.5306,5.5333,5.5336,5.5319,5.5366,5.5348,5.5352,5.5363,5.5369,5.5373,5.5372,5.5299,0,0,0,0,0,5.5261,5.5276,5.528,5.5304,5.5308,5.5308,5.5316,5.5312,5.532,5.5324,5.5327,5.5335,5.535,5.536,5.5373,5.5404,5.5406,5.5419,5.5423,5.5427,5.543,5.5448,5.5455,5.539,5.539,5.539,0,0,5.5276,5.5281,5.5291,5.5308,5.5314,5.533,5.5311,5.5328,5.5341,5.5326,5.535,5.5353,5.5362,5.5391,5.5403,5.5394,5.5449,5.5431,5.5434,5.5435,5.5452,5.5458,5.5464,5.5392,5.5391,5.5391,0,0,5.5313,5.5318,5.5339,5.5346,5.5356,5.5356,5.5361,5.5368,5.537,5.5393,5.5383,5.5398,5.5423,5.543,5.5437,5.548,5.5471,5.5485,5.5508,5.5526,5.5531,5.5535,5.5551,5.5557,5.5488,5.5488,5.5488,0,5.5332,5.5355,5.5351,5.537,5.5378,5.5367,5.5389,5.5396,5.5409,5.5415,5.5405,5.5437,5.5443,5.5473,5.5484,5.549,5.5496,5.5483,5.5531,5.5535,5.5539,5.5554,5.556,5.549,5.5489,5.5489,5.5489,0,5.5378,5.5395,5.5411,5.5425,5.5435,5.5455,5.5455,5.5466,5.5462,5.5463,5.5489,5.5495,5.551,5.5517,5.5513,5.5548,5.5542,5.5531,5.5513,5.5547,5.5561,5.5567,5.5492,5.5491,5.5491,5.549,0,0,5.5426,5.5439,5.5445,5.5452,5.5463,5.5476,5.5496,5.5512,5.5522,5.5532,5.555,5.5572,5.5563,5.5571,5.5568,5.5584,5.5618,5.5571,5.5571,5.558,5.5658,5.5666,5.5673,5.5613,5.5614,5.5615,5.5657,0,5.5464,5.5499,5.5497,5.5531,5.5547,5.5538,5.5556,5.5565,5.5567,5.5582,5.5585,5.5601,5.5587,5.5592,5.5607,5.5611,5.5634,5.5608,5.563,5.563,5.5627,5.568,5.5688,5.5728,5.5663,5.5664,5.5664,0,5.5512,5.5525,5.556,5.557,5.5577,5.5593,5.5608,5.5622,5.5633,5.5634,5.5644,5.5639,5.5661,5.5642,5.5672,5.5655,5.5664,5.5667,5.5669,5.567,5.5649,5.5683,5.574,5.5746,5.5673,5.5672,5.5672,0,5.5544,5.557,5.5595,5.5602,5.5614,5.5626,5.5631,5.5641,5.5651,5.5664,5.5671,5.5686,5.5695,5.5707,5.5707,5.5694,5.5738,5.5719,5.574,5.574,5.5749,5.5749,5.5809,5.5755,5.5755,5.5755,5.5755,0,5.5587,5.5609,5.561,5.5626,5.5651,5.5649,5.5674,5.5678,5.5688,5.5704,5.5697,5.5713,5.5712,5.5728,5.5728,5.5754,5.5758,5.5759,5.5759,5.576,5.576,5.5765,5.5763,5.5757,5.5756,5.5756,5.5756,0,5.5627,5.5628,5.5655,5.5665,5.5668,5.5687,5.5695,5.571,5.5713,5.5734,5.5739,5.5743,5.5762,5.5763,5.5785,5.5785,5.5817,5.5813,5.5813,5.5812,5.5833,5.5831,5.5899,5.5908,5.5849,5.5849,5.585,0,5.5653,5.567,5.5683,5.5694,5.57,5.5717,5.5728,5.5727,5.5739,5.5753,5.5767,5.5786,5.58,5.5831,5.5836,5.5853,5.585,5.5873,5.5853,5.5854,5.5851,5.585,5.5852,5.5877,5.5877,5.5878,5.5878,0,5.5701,5.5702,5.5717,5.5734,5.5747,5.576,5.5772,5.5781,5.5782,5.5796,5.5815,5.5827,5.585,5.5868,5.5886,5.5892,5.5886,5.5885,5.5891,5.5892,5.5891,5.5892,5.5824,5.5883,5.5883,5.5882,5.5882,5.5882,5.5736,5.5751,5.5763,5.5781,5.579,5.5802,5.5817,5.5822,5.5838,5.5857,5.5856,5.5878,5.589,5.5912,5.592,5.5938,5.593,5.5938,5.594,5.5942,5.5945,5.5889,5.5941,5.5941,5.5941,5.594,5.594,0,5.5784,5.5791,5.5808,5.5825,5.584,5.5834,5.5847,5.586,5.5879,5.5891,5.5906,5.593,5.5948,5.5956,5.5974,5.5987,5.5985,5.5992,5.5991,5.5992,5.595,5.5944,5.5993,5.5993,5.5993,5.5993,5.5993,5.5993,5.581,5.5836,5.5839,5.587,5.5877,5.5899,5.5907,5.5919,5.5928,5.5955,5.597,5.5975,5.5986,5.6005,5.6022,5.6024,5.6031,5.604,5.604,5.6001,5.5995,5.599,5.5984,5.6041,5.6041,5.6081,5.6081,5.6082]}]]